Precipitable_Water
0.66 0.54 0.45 0.49 0.53 0.43 0.36 0.29 0.25 0.29 0.35 0.31 0.31 0.32 0.34 0.37 0.34 0.31 0.31 0.32 0.32 0.33 0.38 0.41 0.42 0.50 0.53 0.54 0.55 0.56 0.59 0.75 0.95 1.05 1.04 1.03 1.01 1.10 1.19 1.28 1.39 1.39 1.40 1.42
0.55 0.47 0.57 0.63 0.59 0.51 0.39 0.32 0.29 0.34 0.36 0.32 0.31 0.30 0.33 0.33 0.31 0.32 0.32 0.33 0.34 0.35 0.34 0.36 0.39 0.40 0.43 0.46 0.50 0.53 0.55 0.60 0.78 0.91 0.96 1.02 1.02 1.11 1.15 1.25 1.30 1.33 1.38 1.42
0.50 0.53 0.65 0.61 0.55 0.51 0.47 0.37 0.36 0.33 0.36 0.36 0.32 0.26 0.27 0.31 0.31 0.30 0.31 0.32 0.33 0.32 0.31 0.32 0.33 0.36 0.39 0.40 0.42 0.45 0.49 0.53 0.62 0.79 0.92 1.01 1.06 1.07 1.01 1.01 1.08 1.19 1.26 1.34
0.53 0.62 0.57 0.56 0.52 0.54 0.42 0.52 0.46 0.41 0.36 0.25 0.34 0.19 0.25 0.25 0.26 0.29 0.31 0.33 0.33 0.34 0.35 0.35 0.35 0.35 0.38 0.40 0.43 0.44 0.47 0.49 0.55 0.68 0.77 0.79 0.82 0.84 0.91 0.94 1.00 1.11 1.18 1.25
0.47 0.52 0.52 0.47 0.51 0.59 0.51 0.61 0.50 0.42 0.34 0.30 0.28 0.23 0.23 0.24 0.22 0.26 0.32 0.35 0.39 0.40 0.39 0.38 0.38 0.40 0.41 0.42 0.41 0.41 0.45 0.51 0.56 0.62 0.72 0.70 0.71 0.79 0.85 0.91 0.93 1.00 1.08 1.14
0.52 0.65 0.61 0.54 0.60 0.60 0.58 0.49 0.47 0.42 0.33 0.20 0.24 0.23 0.18 0.21 0.23 0.26 0.32 0.35 0.38 0.40 0.41 0.42 0.44 0.44 0.43 0.44 0.43 0.44 0.42 0.41 0.46 0.53 0.61 0.73 0.72 0.75 0.77 0.81 0.83 0.90 0.97 1.02
0.48 0.50 0.55 0.60 0.50 0.51 0.48 0.41 0.28 0.25 0.22 0.17 0.25 0.21 0.20 0.26 0.28 0.29 0.32 0.36 0.40 0.42 0.41 0.41 0.40 0.41 0.43 0.43 0.43 0.44 0.43 0.42 0.44 0.45 0.48 0.57 0.73 0.81 0.76 0.78 0.80 0.86 0.87 0.91
0.35 0.31 0.48 0.57 0.49 0.43 0.42 0.39 0.28 0.16 0.16 0.17 0.25 0.16 0.19 0.29 0.31 0.35 0.38 0.40 0.42 0.44 0.45 0.45 0.44 0.43 0.44 0.45 0.46 0.45 0.44 0.43 0.44 0.44 0.46 0.51 0.57 0.65 0.73 0.76 0.78 0.81 0.85 0.89
0.34 0.34 0.51 0.51 0.52 0.50 0.41 0.35 0.39 0.25 0.23 0.18 0.20 0.22 0.27 0.31 0.32 0.34 0.36 0.38 0.40 0.46 0.49 0.50 0.52 0.53 0.52 0.52 0.53 0.53 0.51 0.48 0.49 0.50 0.49 0.49 0.49 0.50 0.55 0.63 0.70 0.73 0.78 0.83
0.39 0.31 0.45 0.49 0.52 0.50 0.43 0.44 0.29 0.27 0.16 0.12 0.14 0.16 0.18 0.26 0.30 0.35 0.36 0.39 0.43 0.51 0.54 0.56 0.58 0.59 0.59 0.61 0.64 0.65 0.63 0.60 0.58 0.57 0.57 0.56 0.57 0.59 0.60 0.62 0.61 0.64 0.67 0.71
0.42 0.37 0.37 0.43 0.40 0.37 0.38 0.34 0.33 0.29 0.22 0.14 0.12 0.13 0.23 0.29 0.32 0.33 0.37 0.42 0.46 0.53 0.57 0.58 0.60 0.62 0.64 0.66 0.65 0.62 0.61 0.61 0.61 0.62 0.63 0.62 0.61 0.62 0.64 0.64 0.66 0.67 0.71 0.74
0.43 0.35 0.30 0.34 0.44 0.47 0.41 0.36 0.33 0.22 0.19 0.20 0.19 0.16 0.28 0.32 0.33 0.34 0.37 0.42 0.50 0.57 0.59 0.61 0.62 0.62 0.63 0.63 0.62 0.61 0.62 0.64 0.66 0.68 0.67 0.66 0.66 0.65 0.65 0.66 0.69 0.74 0.75 0.78
0.38 0.30 0.23 0.27 0.33 0.39 0.36 0.37 0.35 0.30 0.26 0.19 0.16 0.17 0.31 0.33 0.35 0.37 0.39 0.46 0.54 0.59 0.59 0.61 0.64 0.64 0.62 0.59 0.58 0.58 0.56 0.54 0.57 0.60 0.61 0.62 0.63 0.63 0.65 0.67 0.70 0.72 0.75 0.77
0.40 0.30 0.26 0.20 0.25 0.32 0.29 0.32 0.33 0.29 0.21 0.20 0.21 0.24 0.31 0.33 0.34 0.41 0.47 0.52 0.58 0.59 0.59 0.59 0.60 0.58 0.57 0.56 0.55 0.53 0.50 0.52 0.56 0.60 0.62 0.62 0.63 0.65 0.68 0.69 0.70 0.72 0.76 0.74
0.38 0.27 0.28 0.29 0.33 0.33 0.31 0.30 0.30 0.27 0.28 0.22 0.24 0.25 0.29 0.36 0.42 0.48 0.53 0.57 0.59 0.59 0.58 0.58 0.58 0.56 0.54 0.53 0.51 0.49 0.49 0.50 0.52 0.55 0.59 0.62 0.64 0.63 0.64 0.65 0.67 0.71 0.71 0.72
0.39 0.28 0.29 0.25 0.31 0.32 0.29 0.32 0.32 0.31 0.30 0.29 0.29 0.28 0.43 0.50 0.54 0.54 0.60 0.60 0.58 0.58 0.58 0.58 0.57 0.55 0.53 0.52 0.50 0.50 0.49 0.52 0.52 0.54 0.57 0.61 0.61 0.63 0.68 0.71 0.74 0.75 0.77 0.77
0.34 0.30 0.24 0.22 0.31 0.31 0.24 0.29 0.30 0.31 0.34 0.33 0.27 0.37 0.46 0.49 0.52 0.57 0.60 0.60 0.59 0.59 0.60 0.58 0.57 0.57 0.58 0.57 0.56 0.53 0.53 0.56 0.58 0.57 0.59 0.58 0.59 0.64 0.72 0.74 0.76 0.79 0.78 0.79
0.32 0.29 0.31 0.26 0.28 0.18 0.29 0.38 0.37 0.33 0.34 0.37 0.42 0.47 0.52 0.55 0.59 0.62 0.65 0.62 0.60 0.60 0.60 0.60 0.60 0.60 0.61 0.61 0.61 0.62 0.60 0.61 0.60 0.61 0.61 0.60 0.61 0.66 0.70 0.72 0.74 0.77 0.77 0.76
0.41 0.35 0.28 0.23 0.22 0.26 0.35 0.41 0.39 0.38 0.41 0.51 0.51 0.54 0.57 0.60 0.63 0.63 0.66 0.66 0.63 0.63 0.63 0.62 0.64 0.62 0.62 0.63 0.65 0.65 0.65 0.65 0.62 0.62 0.62 0.63 0.64 0.64 0.68 0.70 0.73 0.73 0.73 0.74
0.42 0.39 0.29 0.26 0.19 0.17 0.33 0.45 0.53 0.53 0.38 0.60 0.59 0.59 0.58 0.61 0.48 0.57 0.66 0.66 0.64 0.64 0.63 0.65 0.62 0.62 0.62 0.63 0.65 0.66 0.66 0.65 0.64 0.65 0.64 0.66 0.68 0.67 0.68 0.69 0.70 0.73 0.73 0.69
0.31 0.31 0.25 0.25 0.22 0.25 0.38 0.46 0.49 0.35 0.41 0.59 0.62 0.63 0.61 0.57 0.61 0.68 0.70 0.68 0.66 0.65 0.65 0.66 0.65 0.64 0.63 0.66 0.67 0.64 0.66 0.64 0.68 0.69 0.68 0.67 0.69 0.70 0.72 0.72 0.73 0.72 0.71 0.70
0.29 0.27 0.26 0.28 0.24 0.20 0.41 0.48 0.42 0.55 0.61 0.63 0.64 0.64 0.63 0.67 0.67 0.68 0.70 0.67 0.66 0.65 0.65 0.66 0.65 0.64 0.65 0.67 0.65 0.63 0.64 0.69 0.72 0.72 0.71 0.71 0.72 0.73 0.72 0.71 0.63 0.48 0.39 0.34
0.31 0.35 0.30 0.32 0.32 0.42 0.49 0.50 0.58 0.65 0.62 0.64 0.63 0.65 0.67 0.66 0.66 0.70 0.71 0.69 0.67 0.65 0.65 0.67 0.66 0.65 0.67 0.68 0.67 0.64 0.67 0.69 0.70 0.70 0.68 0.69 0.69 0.58 0.38 0.31 0.31 0.31 0.30 0.27
0.42 0.47 0.38 0.38 0.44 0.46 0.49 0.54 0.60 0.69 0.68 0.66 0.66 0.65 0.68 0.67 0.70 0.70 0.72 0.69 0.67 0.67 0.66 0.68 0.67 0.65 0.64 0.67 0.68 0.67 0.67 0.68 0.67 0.64 0.55 0.39 0.32 0.31 0.31 0.31 0.29 0.26 0.23 0.21
0.41 0.44 0.40 0.39 0.44 0.48 0.54 0.59 0.66 0.73 0.71 0.69 0.66 0.64 0.67 0.70 0.69 0.73 0.74 0.69 0.68 0.68 0.69 0.69 0.68 0.66 0.65 0.67 0.66 0.67 0.65 0.59 0.51 0.40 0.33 0.31 0.31 0.29 0.29 0.27 0.25 0.23 0.22 0.21
0.39 0.35 0.33 0.31 0.43 0.43 0.47 0.57 0.62 0.66 0.66 0.66 0.65 0.63 0.69 0.72 0.73 0.77 0.74 0.75 0.72 0.70 0.70 0.68 0.66 0.65 0.65 0.65 0.64 0.58 0.54 0.49 0.38 0.33 0.31 0.31 0.30 0.29 0.28 0.26 0.26 0.27 0.27 0.26
Wind_Speed
28 26 29 30 28 24 25 25 23 22 21 22 25 25 26 26 26 27 28 28 29 30 31 32 34 35 35 35 35 35 35 35 34 34 34 33 34 34 34 33 32 32 30 30
22 25 24 24 25 22 26 25 23 20 21 21 21 24 26 25 24 26 27 28 28 29 29 31 32 34 35 36 36 36 35 36 36 36 35 35 34 35 35 34 34 34 33 33
21 18 23 24 28 23 22 25 21 19 19 18 19 21 19 19 19 19 19 21 22 23 25 27 29 31 32 34 34 35 36 36 36 38 38 37 35 35 34 34 35 35 36 35
17 20 20 15 19 20 20 20 19 18 17 18 16 17 15 15 13 14 15 15 16 17 18 19 20 23 27 30 32 33 34 34 35 35 36 39 38 38 37 37 37 37 37 38
13 19 20 19 18 19 16 16 17 16 15 16 16 15 16 16 13 14 14 13 13 14 15 15 15 16 18 20 24 28 31 33 33 33 33 34 38 39 39 39 39 40 40 40
13 13 13 12 21 18 17 13 11 14 14 15 16 16 14 15 15 15 14 14 14 13 13 13 14 15 15 16 17 19 23 28 31 33 33 34 34 35 36 38 39 41 42 42
13 10 11 14 14 14 13 12 9 10 14 14 13 14 15 15 14 15 13 12 12 13 13 13 14 15 15 16 17 18 19 21 24 28 32 35 36 37 38 38 38 38 39 40
13 12 11 12 13 15 13 13 11 11 12 12 12 14 13 13 15 14 13 13 13 12 13 14 16 17 18 19 19 20 21 22 23 25 27 30 34 36 38 39 40 41 42 42
13 10 10 11 13 14 14 11 12 9 8 9 11 12 11 13 13 12 12 11 12 13 14 15 17 18 20 21 22 23 24 26 27 28 29 31 32 34 36 37 39 40 41 42
10 12 11 12 12 9 12 14 11 10 9 9 9 11 11 14 14 12 11 12 13 14 15 17 19 20 21 23 24 25 26 27 29 30 32 33 35 36 37 39 40 40 41 41
10 10 11 12 12 13 12 11 9 10 9 9 8 9 13 14 12 9 10 12 13 14 16 18 19 20 21 21 21 22 24 26 29 31 33 35 36 37 39 40 41 41 42 42
8 8 10 11 11 13 12 13 12 10 11 9 8 9 11 14 12 9 11 12 13 14 15 17 18 18 18 18 20 21 23 24 26 28 29 31 33 35 36 38 41 42 42 42
9 6 8 8 9 10 12 14 12 10 9 11 9 9 10 13 14 14 14 14 13 14 15 16 17 16 16 16 17 19 20 21 23 25 26 27 29 30 32 34 36 38 39 39
8 7 8 8 7 8 10 12 13 12 10 10 11 8 9 10 11 14 15 13 13 14 14 15 14 12 12 13 14 14 16 18 20 21 22 23 25 26 27 26 25 25 27 29
7 6 6 6 6 7 8 9 12 12 12 10 9 11 11 12 13 14 13 12 13 13 12 12 11 10 11 11 12 12 14 16 17 18 18 18 19 16 15 15 14 15 16 18
7 6 5 4 5 8 7 9 10 12 11 13 11 14 13 12 11 10 10 12 11 10 10 10 9 10 9 10 9 10 12 13 16 16 16 14 10 9 8 8 8 9 8 9
8 8 4 4 4 4 5 10 12 10 10 12 11 11 10 10 10 9 10 10 9 9 9 9 9 8 8 8 8 8 9 11 13 15 13 9 7 5 5 3 3 1 3 3
8 7 6 5 3 5 5 5 8 11 9 13 11 11 11 10 9 9 9 8 8 8 8 9 9 7 7 7 7 6 8 9 11 12 11 8 6 5 4 4 4 1 2 4
7 7 5 4 5 5 4 4 6 7 5 9 11 11 10 9 7 8 7 6 7 7 7 7 5 4 5 5 5 5 6 7 8 8 9 8 7 6 6 7 7 6 6 6
6 5 6 5 4 5 5 4 5 6 5 5 7 7 7 6 6 6 5 5 5 5 5 4 2 3 3 3 4 5 4 5 5 6 6 7 7 7 8 8 7 7 6 7
7 6 7 7 6 7 8 6 6 5 6 4 5 7 7 6 6 4 3 3 3 3 2 2 1 2 1 2 3 3 3 3 5 7 8 8 10 10 10 10 10 11 10 8
8 8 7 7 6 7 7 6 6 6 6 6 6 7 7 6 5 4 4 2 2 2 2 2 1 1 0 1 3 4 5 5 7 8 9 10 10 10 10 10 9 8 8 6
8 9 8 9 8 8 6 8 8 8 7 6 5 6 6 6 6 6 6 4 3 1 1 2 1 2 2 3 4 6 6 8 9 10 9 9 9 8 8 7 6 6 5 5
9 9 9 7 8 11 11 10 10 8 7 5 5 5 5 5 5 6 6 4 4 3 3 2 2 3 5 6 6 8 8 9 8 8 7 7 7 6 5 5 5 5 5 5
10 9 10 11 12 12 10 9 9 9 8 7 6 6 5 5 5 6 7 5 4 4 4 4 4 5 6 6 7 7 7 6 6 6 5 5 4 4 4 5 5 6 7 8
12 13 12 13 14 13 14 14 12 13 12 10 9 7 6 4 4 6 7 7 7 5 5 5 5 6 6 6 6 6 5 5 5 4 3 2 3 3 4 5 6 7 8 9
Wind_Direction
195 200 204 204 206 208 207 211 216 222 220 222 228 233 237 241 242 243 245 247 248 248 248 248 248 248 249 250 249 249 249 250 249 249 249 249 249 248 248 248 247 247 247 247
192 203 200 202 203 207 205 207 213 218 218 224 231 239 241 242 242 242 244 247 249 250 252 253 252 251 250 250 250 250 250 250 249 249 250 250 250 249 248 248 248 248 248 248
193 190 199 201 199 200 205 205 210 213 217 224 237 241 238 237 241 240 241 243 246 252 256 257 255 252 251 250 251 251 251 251 251 250 250 249 250 249 248 249 249 249 248 249
187 202 200 179 185 198 199 206 207 209 216 224 230 234 234 231 232 230 234 241 248 254 257 257 257 255 253 253 253 252 252 251 251 251 250 248 248 249 249 250 251 250 250 250
180 182 182 182 194 195 199 204 208 213 216 225 229 228 233 227 229 231 235 241 249 255 257 259 259 258 256 257 256 255 252 251 250 251 251 250 249 251 251 252 252 252 252 252
181 181 178 189 175 177 174 180 192 209 217 226 228 226 232 224 224 226 232 240 248 255 257 258 258 258 260 262 263 262 257 254 252 253 253 252 252 252 252 253 253 254 254 254
181 186 193 176 165 182 184 183 196 211 218 222 224 221 230 226 228 219 226 240 248 253 258 262 264 265 267 268 268 267 266 264 260 257 256 256 256 256 256 256 256 255 255 255
178 174 182 187 187 191 190 194 195 205 208 215 219 226 221 229 215 214 231 241 251 258 264 267 267 267 269 271 272 272 270 269 267 265 263 261 260 259 259 259 259 258 257 257
180 186 194 187 191 193 198 200 202 192 215 216 218 230 227 211 212 226 238 246 258 265 270 272 273 273 272 275 276 276 274 272 270 269 268 267 266 264 263 263 262 261 260 259
186 178 191 191 188 193 201 193 205 216 208 225 223 226 215 210 216 229 246 258 264 270 275 277 278 278 275 278 279 279 278 276 274 272 270 269 269 268 267 266 265 264 262 260
173 183 194 195 206 202 204 211 212 210 217 211 219 225 212 203 209 225 253 265 268 277 282 283 284 282 281 282 282 282 283 281 279 277 274 272 271 270 269 268 266 264 263 261
185 174 188 200 210 213 214 210 209 209 217 213 211 227 214 212 219 241 272 276 276 282 288 290 289 287 284 285 288 289 289 287 286 283 279 276 274 273 272 270 268 265 263 261
184 183 176 197 209 210 210 208 205 202 204 209 204 224 217 220 237 261 270 281 282 286 292 293 294 291 289 291 293 298 299 298 293 289 285 282 280 278 277 275 272 267 262 258
168 169 178 187 189 188 201 204 205 203 205 203 218 234 223 234 259 272 279 275 282 289 293 295 296 295 296 301 303 305 310 314 310 303 296 291 290 287 282 280 276 271 263 255
172 170 179 187 181 181 189 192 196 200 206 204 220 223 243 258 265 270 275 276 284 290 293 295 293 295 302 307 305 311 322 327 327 321 312 305 303 295 289 281 278 273 266 256
186 177 173 191 191 206 213 209 202 212 215 231 233 255 253 260 268 272 273 282 285 285 292 294 289 296 305 312 311 317 329 336 338 338 330 323 318 314 302 290 286 277 260 237
183 178 180 199 194 206 229 219 210 212 216 219 220 232 254 263 269 272 276 280 278 282 289 296 290 286 295 311 315 324 338 345 353 353 353 348 347 337 328 329 320 285 251 224
174 176 179 192 200 203 206 221 204 209 215 221 236 247 257 269 270 276 281 274 275 278 286 294 293 272 287 303 315 326 337 345 355 4 14 21 23 32 40 37 14 48 103 138
179 176 184 200 211 241 197 194 183 197 213 214 229 253 268 269 267 276 275 277 275 274 284 293 286 265 288 297 318 336 342 354 3 20 35 42 53 63 62 58 69 87 98 109
186 188 194 203 210 215 216 205 200 213 199 222 234 255 270 264 269 279 260 278 283 280 278 289 250 284 291 307 323 343 5 12 31 40 53 63 63 68 71 79 77 71 96 114
207 211 214 227 232 248 230 232 222 211 208 251 258 268 268 257 264 268 248 283 275 289 272 217 250 316 328 331 347 7 32 61 68 72 76 83 83 83 83 82 80 83 88 98
209 209 222 220 232 244 219 225 219 218 248 262 271 273 270 256 247 243 229 251 276 274 247 220 224 315 67 31 58 79 84 88 96 95 93 92 90 89 86 84 82 81 82 79
230 221 227 218 225 223 230 236 237 236 256 266 272 276 269 251 246 235 229 244 248 244 160 164 146 132 110 101 105 103 105 106 107 103 98 94 90 85 81 78 72 64 55 40
236 230 235 236 232 236 243 256 235 236 239 257 269 277 266 263 241 230 219 228 224 217 206 192 151 136 126 120 117 116 117 113 109 103 97 93 88 80 67 55 41 29 14 359
237 228 237 244 251 253 235 237 234 231 239 255 268 275 280 266 240 220 216 218 214 207 191 176 160 151 145 140 135 134 128 123 115 109 101 92 74 58 42 26 11 359 349 342
242 241 240 246 246 244 245 248 249 243 247 251 255 268 269 259 227 219 216 215 211 201 190 180 171 166 163 160 157 153 148 142 131 118 100 72 43 21 7 360 357 354 347 343